This demonstration page uses our WeatherBlox Daily Observations layout. Learn more.

Left ArrowRight Arrow

Hourly Observations for April 20, 2017

Temp ( °F °C ) Dew Point ( °F °C ) Humidity (%) Winds ( mph kmh ) Pressure ( in mb ) Visibility ( mi km ) Precip ( " mm )
12:15 am 00:15 Cloudy 59 15 55 13 88 88 SW 6 9 30.21 1023 10 16 N/A
12:35 am 00:35 Cloudy 59 15 55 13 88 88 SW 8 13 30.21 1023 10 16 N/A
12:55 am 00:55 Cloudy 59 15 55 13 88 88 N N/A 30.21 1023 10 16 N/A
1:15 am 01:15 Cloudy 59 15 55 13 88 88 SW 7 11 30.18 1022 10 16 N/A
1:35 am 01:35 Cloudy 57 14 55 13 94 94 SW 5 7 30.18 1022 10 16 N/A
1:55 am 01:55 Cloudy 57 14 55 13 94 94 S 6 9 30.15 1021 10 16 N/A
2:15 am 02:15 Cloudy 55 13 55 13 100 100 SW 5 7 30.15 1021 10 16 N/A
2:35 am 02:35 Cloudy 55 13 55 13 100 100 N N/A 30.15 1021 10 16 N/A
2:55 am 02:55 Cloudy 57 14 55 13 94 94 S 6 9 30.15 1021 10 16 N/A
3:15 am 03:15 Cloudy 55 13 55 13 100 100 N N/A 30.15 1021 10 16 N/A
3:35 am 03:35 Cloudy 55 13 55 13 100 100 SSW 3 6 30.15 1021 10 16 N/A
3:55 am 03:55 Cloudy 55 13 55 13 100 100 S 6 9 30.12 1020 10 16 N/A
4:15 am 04:15 Cloudy 55 13 55 13 100 100 S 5 7 30.12 1020 10 16 N/A
4:35 am 04:35 Cloudy 55 13 55 13 100 100 SW 3 6 30.12 1020 10 16 N/A
4:55 am 04:55 Cloudy 55 13 55 13 100 100 SW 5 7 30.12 1020 10 16 N/A
5:15 am 05:15 Mostly Cloudy 55 13 54 12 94 94 SSW 5 7 30.12 1020 10 16 N/A
5:35 am 05:35 Cloudy 55 13 55 13 100 100 SW 3 6 30.12 1020 10 16 N/A
5:55 am 05:55 Cloudy 55 13 55 13 100 100 SW 3 6 30.12 1020 10 16 N/A
6:15 am 06:15 Partly Cloudy 55 13 55 13 100 100 N N/A 30.12 1020 10 16 N/A
6:35 am 06:35 Mostly Cloudy 55 13 55 13 100 100 N N/A 30.15 1021 10 16 N/A
6:55 am 06:55 Cloudy 55 13 55 13 100 100 NW 3 6 30.15 1021 10 16 N/A
7:15 am 07:15 Cloudy with Light Rain 55 13 55 13 100 100 W 5 7 30.15 1021 7 11 0.01 0.25
7:35 am 07:35 Cloudy with Rain 55 13 55 13 100 100 SW 3 6 30.15 1021 5 8 0.04 1.02
7:55 am 07:55 Cloudy with Light Rain 55 13 55 13 100 100 SSW 6 9 30.15 1021 7 11 0.05 1.27
8:15 am 08:15 Cloudy with Light Rain 55 13 55 13 100 100 S 6 9 30.12 1020 10 16 N/A
8:35 am 08:35 Cloudy 55 13 55 13 100 100 SSW 9 15 30.12 1020 7 11 N/A
8:55 am 08:55 Mostly Cloudy 57 14 57 14 100 100 SSW 5 7 30.12 1020 10 16 N/A
9:15 am 09:15 Partly Cloudy 59 15 59 15 100 100 S 5 7 30.12 1020 10 16 N/A
9:35 am 09:35 Mostly Cloudy 61 16 59 15 94 94 N N/A 30.12 1020 10 16 N/A
9:55 am 09:55 Partly Cloudy 61 16 61 16 100 100 N N/A 30.12 1020 10 16 N/A
10:15 am 10:15 Sunny 64 18 63 17 94 94 N N/A 30.12 1020 10 16 N/A
10:35 am 10:35 Sunny 68 20 63 17 83 83 SW 5 7 30.12 1020 10 16 N/A
10:55 am 10:55 Sunny 70 21 63 17 78 78 N N/A 30.12 1020 10 16 N/A
11:15 am 11:15 Sunny 72 22 63 17 73 73 SSW 5 7 30.12 1020 10 16 N/A
11:35 am 11:35 Sunny 72 22 63 17 73 73 N N/A 30.09 1019 10 16 N/A
11:55 am 11:55 Sunny 73 23 63 17 69 69 S 3 6 30.09 1019 10 16 N/A
12:15 pm 12:15 Sunny 75 24 63 17 65 65 N N/A 30.06 1018 10 16 N/A
12:35 pm 12:35 Partly Cloudy 77 25 63 17 61 61 N N/A 30.06 1018 10 16 N/A
12:55 pm 12:55 Partly Cloudy 79 26 63 17 58 58 SW 5 7 30.06 1018 10 16 N/A
1:15 pm 13:15 Sunny 81 27 64 18 58 58 S 6 9 30.06 1018 10 16 N/A
1:35 pm 13:35 Sunny 81 27 63 17 54 54 W 5 7 30.03 1017 10 16 N/A
1:55 pm 13:55 Sunny 81 27 63 17 54 54 S 7 11 30.03 1017 10 16 N/A
2:15 pm 14:15 Sunny 82 28 63 17 51 51 N N/A 30.03 1017 10 16 N/A
2:35 pm 14:35 Sunny 82 28 63 17 51 51 S 7 11 30.00 1016 10 16 N/A
2:55 pm 14:55 Sunny 82 28 63 17 51 51 SSW 6 9 30.00 1016 10 16 N/A
3:15 pm 15:15 Sunny 82 28 63 17 51 51 SSW 5 7 29.97 1015 10 16 N/A
3:35 pm 15:35 Sunny 82 28 63 17 51 51 SSE 3 6 29.97 1015 10 16 N/A
3:55 pm 15:55 Sunny 82 28 63 17 51 51 WSW 6 9 29.97 1015 10 16 N/A
4:15 pm 16:15 Sunny 82 28 63 17 51 51 SSW 7 11 29.97 1015 10 16 N/A
4:35 pm 16:35 Sunny 82 28 63 17 51 51 S 7 11 29.97 1015 10 16 N/A
4:55 pm 16:55 Sunny 82 28 63 17 51 51 S 6 9 29.94 1014 10 16 N/A
5:15 pm 17:15 Sunny 84 29 63 17 48 48 S 8 13 29.94 1014 10 16 N/A
5:35 pm 17:35 Sunny 82 28 63 17 51 51 SSW 9 15 29.94 1014 10 16 N/A
5:55 pm 17:55 Partly Cloudy 82 28 63 17 51 51 S 9 15 29.94 1014 10 16 N/A
6:15 pm 18:15 Mostly Cloudy 82 28 63 17 51 51 S 7 11 29.94 1014 10 16 N/A
6:35 pm 18:35 Cloudy 82 28 63 17 51 51 S 7 11 29.94 1014 10 16 N/A
6:55 pm 18:55 Cloudy 81 27 63 17 54 54 S 7 11 29.94 1014 10 16 N/A
7:15 pm 19:15 Cloudy with Rain 77 25 68 20 74 74 N N/A 29.94 1014 5 8 0.04 1.02
7:35 pm 19:35 Mostly Cloudy 73 23 64 18 74 74 SSW 10 17 29.94 1014 10 16 0.05 1.27
7:55 pm 19:55 Partly Cloudy 72 22 64 18 78 78 SSW 6 9 29.94 1014 10 16 0.05 1.27
8:15 pm 20:15 Partly Cloudy 70 21 64 18 83 83 SW 6 9 29.94 1014 10 16 N/A
8:35 pm 20:35 Mostly Cloudy 70 21 64 18 83 83 SSW 9 15 29.97 1015 10 16 N/A
8:55 pm 20:55 Cloudy 70 21 64 18 83 83 SSW 3 6 29.97 1015 10 16 N/A
9:15 pm 21:15 Partly Cloudy 70 21 64 18 83 83 S 5 7 29.97 1015 10 16 N/A
9:35 pm 21:35 Clear 70 21 64 18 83 83 N N/A 29.97 1015 10 16 N/A
9:55 pm 21:55 Clear 68 20 64 18 88 88 N N/A 29.97 1015 10 16 N/A
10:15 pm 22:15 Clear 68 20 64 18 88 88 SSE 3 6 29.97 1015 10 16 N/A
10:35 pm 22:35 Clear 66 19 64 18 94 94 N N/A 29.94 1014 10 16 N/A
10:55 pm 22:55 Clear 64 18 64 18 100 100 N N/A 29.94 1014 10 16 N/A
11:15 pm 23:15 Clear 66 19 64 18 94 94 SE 5 7 29.94 1014 10 16 N/A
11:35 pm 23:35 Clear 66 19 64 18 94 94 SSE 3 6 29.94 1014 10 16 N/A
11:55 pm 23:55 Clear 64 18 64 18 100 100 SSW 3 6 29.94 1014 10 16 N/A

Powered by AerisWeather